Regional Weather Roundup
Issued by NWS

Home | Current Version | Previous Version | Text Only | Print | Product List | Glossary Off
Versions: 1 2 3 4 5 6 7 8 9 10 11 12 13 14 15 16 17 18 19 20 21 22 23 24 25 26 27 28 29 30 31 32 33 34 35 36 37 38 39 40 41 42 43 44 45 46 47 48 49 50

599
ASUS45 KPSR 210910
RWRAZ

ARIZONA HOURLY REGIONAL WEATHER ROUNDUP
NATIONAL WEATHER SERVICE PHOENIX AZ
200 AM MST SAT APR 21 2018

NOTE: FAIR INDICATES FEW OR NO CLOUDS BELOW 12,000 FEET WITH NO
SIGNIFICANT WEATHER AND/OR OBSTRUCTIONS TO VISIBILITY.

AZZ001>003-036-211000-
NORTHWEST ARIZONA

CITY           SKY/WX    TMP DP  RH WIND       PRES   REMARKS
BULLHEAD CITY  CLEAR     68  27  21 CALM      30.01R
KINGMAN        CLEAR     54  22  28 N3        30.13S
$$

AZZ004>008-015-016-018-211000-
NORTH CENTRAL ARIZONA

CITY           SKY/WX    TMP DP  RH WIND       PRES   REMARKS
GRAND CANYON   CLEAR     24  23  96 NE3       30.22S
WILLIAMS       PTCLDY    30  25  80 S5        30.19F WCI  25
PRESCOTT       CLEAR     38  26  62 SW5       30.18S WCI  34
FLAGSTAFF      CLEAR     26  23  88 CALM      30.20F
PAYSON         CLEAR     37  27  65 CALM      30.17S
PAGE           CLEAR     45  37  73 CALM      30.11F
$$

AZZ009>014-017-211000-
NORTHEAST ARIZONA

CITY           SKY/WX    TMP DP  RH WIND       PRES   REMARKS
WINSLOW        CLEAR     36  31  82 SE5       30.17F WCI  32
SAINT JOHNS    CLEAR     36  31  82 SW10      30.17S WCI  28
WINDOW ROCK    CLEAR     26  25  96 S5        30.15S WCI  20
SHOW LOW       CLEAR     32  28  86 S6        30.21F WCI  26
$$

AZZ540-542>544-546-548-211000-
GREATER PHOENIX AREA

CITY           SKY/WX    TMP DP  RH WIND       PRES   REMARKS
PHOENIX        CLEAR     64  31  28 SE6       30.02F
BUCKEYE        CLEAR     57  28  33 E7        30.03S
LUKE AFB       CLEAR     58  37  45 NW7       30.02F
DEER VALLEY    CLEAR     62  31  31 NE7       30.04F
SCOTTSDALE     CLEAR     62  34  35 CALM      30.05F
MESA-GATEWAY   CLEAR     57  29  34 CALM      30.06F
$$

AZZ539-553-211000-
SOUTHWEST MARICOPA COUNTY AND PINAL COUNTY

CITY           SKY/WX    TMP DP  RH WIND       PRES   REMARKS
CASA GRANDE    CLEAR     57  26  30 CALM      30.06F
GILA BEND      FAIR      60  21  22 S8        30.01F
$$

AZZ503-504-507>509-211000-
SOUTHEAST ARIZONA

CITY           SKY/WX    TMP DP  RH WIND       PRES   REMARKS
TUCSON         CLEAR     55  25  31 S7        30.10F
DAVIS-MONTHAN  CLEAR     52  24  33 SE8       30.08F
NOGALES        CLEAR     51  24  34 N6        30.11F
SIERRA VISTA   CLEAR     46  21  36 CALM      30.16
DOUGLAS        CLEAR     43  21  41 N9        30.13F
SAFFORD        CLEAR     53  27  36 NW5       30.09F
$$

AZZ532-211000-
SOUTHWEST ARIZONA

CITY           SKY/WX    TMP DP  RH WIND       PRES   REMARKS
YUMA           CLEAR     62  44  51 CALM      30.00F
$$

CAZ041-043-047-048-061-525>527-560>570-211000-
SOUTHERN CALIFORNIA

CITY           SKY/WX    TMP DP  RH WIND       PRES   REMARKS
DOWNTOWN L.A.  CLEAR     57  50  77 CALM      30.07F
L.A. AIRPORT   CLEAR     57  52  83 CALM      30.07F
SAN DIEGO      PTCLDY    58  54  86 CALM      30.09F
BURBANK        CLEAR     56  50  80 NW6       30.07F
ONTARIO        CLEAR     56  43  61 N3        30.07F
RIVERSIDE      CLEAR     53  42  66 S3        30.07F
PALM SPRINGS   CLEAR     68  42  38 CALM      30.01F
EL CENTRO NAS  CLEAR     63  35  35 SW8       30.00F
IMPERIAL       CLEAR     63  40  42 SW7       29.97F
BLYTHE         CLEAR     68  29  23 CALM      29.99F
NEEDLES        CLEAR     70  26  19 VRB3      30.00F
$$

NVZ020-UTZ003-211000-
SOUTHERN NEVADA-UTAH

CITY           SKY/WX    TMP DP  RH WIND       PRES   REMARKS
LAS VEGAS      CLEAR     64  34  32 SW6       30.07S
SALT LAKE CITY CLEAR     48  38  68 SE6       30.12R
$$

NMZ009-TXZ055-211000-
NEW MEXICO-WEST TEXAS

CITY           SKY/WX    TMP DP  RH WIND       PRES   REMARKS
ALBUQUERQUE    CLEAR     39  34  82 SE7       30.06F WCI  34
EL PASO        PTCLDY    58  23  26 NW18      30.03S
$$


........................KEY........................
SKY/WX - SKY CONDITION/WEATHER
TMP    - TEMPERATURE IN FAHRENHEIT
DP     - DEW POINT IN FAHRENHEIT
RH     - RELATIVE HUMIDITY IN PERCENT
WIND   - DIRECTION AND SPEED IN MILES PER HOUR (MPH)
VRB    - VARIABLE WIND DIRECTION
PRES   - MEAN SEA LEVEL PRESSURE IN INCHES OF MERCURY
         F - FALLING PRESSURE   R - RISING PRESSURE
         S - STEADY PRESSURE
VSB    - VISIBILITY IN MILES
HX     - HEAT INDEX IN FAHRENHEIT
WCI    - WIND CHILL INDEX IN FAHRENHEIT
TC     - TEMPERATURE IN CELSIUS WHICH IS ALSO KNOWN AS
         TEMPERATURE IN CENTIGRADE
AFB    - AIR FORCE BASE
         LUKE AFB IS LUKE AIR FORCE BASE
         DAVIS-MONTHAN IS DAVIS-MONTHAN AIR FORCE BASE
NAS    - NAVAL AIR STATION
         EL CENTRO NAS IS EL CENTRO NAVAL AIR STATION
N/A    - NOT AVAILABLE





USA.gov is the U.S. government's official web portal to all federal, state and local government web resources and services.